Location: Unspecified
(58.9933°N, 5.6375°E)
Time: 00:07:02
(UTC+01:00)

Cosmos 2058 - Visible Passes

Search period start: 03 March 2015 00:00
Search period end: 13 March 2015 00:00
Orbit: 569 x 589 km, 82.5° (Epoch: 02 March)

Date Brightness Start Highest point End Pass type
(mag) Time Alt. Az. Time Alt. Az. Time Alt. Az.
03 Mar 5.2 21:30:06 10° N 21:31:31 16° NNE 21:31:31 16° NNE visible
03 Mar 5.5 23:06:36 10° NNW 23:07:51 19° NNW 23:07:51 19° NNW visible
04 Mar 5.0 21:34:44 10° N 21:36:26 18° NNE 21:36:26 18° NNE visible
04 Mar 5.5 23:11:26 10° NNW 23:12:46 20° NNW 23:12:46 20° NNW visible
05 Mar 4.9 21:39:24 10° N 21:41:21 21° NNE 21:41:21 21° NNE visible
05 Mar 5.5 23:16:16 10° NNW 23:17:41 20° NNW 23:17:41 20° NNW visible
06 Mar 4.7 21:44:05 10° N 21:46:17 24° NNE 21:46:17 24° NNE visible
06 Mar 5.4 23:21:08 10° NNW 23:22:36 20° NNW 23:22:36 20° NNW visible
07 Mar 5.3 20:14:05 10° NE 20:14:30 10° NE 20:14:53 10° NE visible
07 Mar 4.4 21:48:47 10° N 21:51:12 29° NNE 21:51:12 29° NNE visible
07 Mar 5.5 23:26:01 10° NNW 23:27:32 19° NW 23:27:32 19° NW visible
08 Mar 5.1 20:17:52 10° NNE 20:19:30 12° NE 20:19:49 12° NE visible
08 Mar 4.2 21:53:30 10° N 21:56:08 34° NNE 21:56:08 34° NNE visible
08 Mar 5.5 23:30:56 10° NNW 23:32:28 18° NW 23:32:28 18° NW visible
09 Mar 4.9 20:22:12 10° NNE 20:24:28 14° NE 20:24:45 14° NE visible
09 Mar 4.0 21:58:14 10° N 22:01:05 40° N 22:01:05 40° N visible
09 Mar 5.6 23:35:54 10° NW 23:37:25 17° NW 23:37:25 17° NW visible
10 Mar 4.7 20:26:41 10° NNE 20:29:25 17° NE 20:29:42 17° ENE visible
10 Mar 3.8 22:02:59 10° NNW 22:06:02 46° N 22:06:02 46° N visible
10 Mar 5.6 23:40:57 10° NW 23:42:21 15° WNW 23:42:21 15° WNW visible
11 Mar 4.5 20:31:13 10° N 20:34:21 20° NE 20:34:39 20° ENE visible
11 Mar 3.7 22:07:45 10° NNW 22:10:59 51° NNW 22:10:59 51° NNW visible
11 Mar 5.7 23:46:08 10° NW 23:47:19 13° WNW 23:47:19 13° WNW visible
12 Mar 4.2 20:35:48 10° N 20:39:14 24° ENE 20:39:37 24° ENE visible
12 Mar 3.7 22:12:31 10° NNW 22:15:57 52° NW 22:15:57 52° NW visible
12 Mar 5.9 23:51:39 10° WNW 23:52:17 11° WNW 23:52:17 11° WNW visible
